Location: Peterborough
(44.3091°N, 78.3197°W)
Time: 03:07:40
(UTC-04:00)

S-56A Canister/Altair - Pass Details

Date: 22 March 2023
Orbit: 639 x 2492 km, 38.9° (Epoch: 08 June)

Event Time Altitude Azimuth Distance (km) Brightness Sun altitude
Rises 00:05:51 0° 267° (W) 5,863 12.3 -42.2°
Reaches altitude 10° 00:09:29 10° 266° (W) 4,988 11.8 -42.5°
Enters shadow 00:20:43 57° 241° (WSW) 2,809 10.0 -43.2°
Maximum altitude 00:24:15 70° 187° (S) 2,586 - -43.5°
Drops below altitude 10° 00:37:59 10° 108° (ESE) 4,676 - -44.2°
Sets 00:41:17 0° 106° (ESE) 5,491 - -44.3°
